CAPE
0 0 0 0 0 0 0 0 0 0 0 0 0 0 0 0 0 0 0 0 0 0 0 0 0 0 0 0 0 0 0 0 0 0 0 0 0 0 0 0 0 0 0 0
0 0 0 0 0 0 0 0 0 0 0 0 0 0 0 0 0 0 0 0 0 0 0 0 0 0 0 0 0 0 0 0 0 0 0 0 0 0 0 0 0 0 0 0
0 0 0 0 0 0 0 0 0 0 0 0 0 0 0 0 0 0 0 0 0 0 0 0 0 0 0 0 0 0 0 0 0 0 0 0 0 0 0 0 0 0 0 0
0 0 0 0 0 0 0 0 0 0 0 0 0 0 0 0 0 0 0 0 0 0 0 0 0 0 0 0 0 0 0 0 0 0 0 0 0 0 0 0 0 0 0 0
0 0 0 0 0 0 0 0 0 0 0 0 0 0 0 0 0 0 0 0 0 0 0 0 0 0 0 0 0 0 0 0 0 0 0 0 0 0 0 0 0 0 0 0
0 0 0 0 0 0 0 0 0 0 0 0 0 0 0 0 0 0 0 0 0 0 0 0 0 0 0 0 0 0 0 0 0 0 0 0 0 0 0 0 0 0 0 0
0 0 0 0 0 0 0 0 0 0 0 0 0 0 0 0 0 0 0 0 0 0 0 0 0 0 0 0 0 0 0 0 0 0 0 0 0 0 0 0 0 0 0 0
0 0 0 0 0 0 0 0 0 0 0 0 0 0 0 0 0 0 0 0 0 0 0 0 0 0 0 0 0 0 0 0 0 0 0 0 0 0 0 0 0 0 0 0
0 0 0 0 0 0 0 0 0 0 0 0 0 0 0 0 0 0 0 0 0 0 0 0 0 0 0 0 0 0 0 0 0 0 0 0 0 0 0 0 0 0 0 0
0 0 0 0 0 0 0 0 0 0 0 0 0 0 0 0 0 0 0 0 0 0 0 0 0 0 0 0 0 0 0 0 0 0 0 0 0 0 0 0 0 0 0 0
0 0 0 0 0 0 0 0 0 0 0 0 0 0 0 0 0 0 0 0 0 0 0 0 0 0 0 0 0 0 0 0 0 0 0 0 0 0 0 0 0 0 0 0
0 0 0 0 0 0 0 0 0 0 0 0 0 0 0 0 0 0 0 0 0 0 0 0 0 0 0 0 0 0 0 0 0 0 0 0 0 0 0 0 0 0 0 0
0 0 0 0 0 0 0 0 0 0 0 0 0 0 0 0 0 0 0 0 0 0 0 0 0 0 0 0 0 0 0 0 0 0 0 0 0 0 0 0 0 0 0 0
0 0 0 0 0 0 0 0 0 0 0 0 0 0 0 0 0 0 0 0 0 0 0 0 0 0 0 0 0 0 0 0 0 0 0 0 0 0 0 0 0 0 0 0
0 0 1 0 0 0 0 0 0 0 0 0 0 0 0 0 0 0 0 0 0 0 0 0 0 0 0 0 0 0 0 0 0 0 0 0 0 0 0 0 0 0 0 0
0 0 0 0 0 0 0 0 0 0 0 0 0 0 0 0 0 0 0 0 0 0 0 0 0 0 0 0 0 0 0 0 0 0 0 0 0 0 0 0 0 0 0 0
0 1 1 0 0 0 2 0 0 0 0 0 0 0 0 0 0 0 0 0 0 0 0 0 0 0 0 0 0 0 0 0 0 0 0 0 0 0 0 0 0 0 0 0
4 0 0 0 0 0 0 0 0 0 0 0 0 0 0 0 0 0 0 0 0 0 0 0 0 0 0 0 0 0 0 0 0 0 0 0 0 0 0 0 0 0 0 0
2 4 0 0 0 0 0 0 0 0 0 0 0 0 0 0 0 0 0 0 0 0 0 0 0 0 0 0 0 0 0 0 0 0 0 0 0 0 0 0 0 0 0 0
0 1 1 4 6 11 0 0 0 0 0 0 0 0 0 0 0 0 0 0 0 0 0 0 0 0 0 0 0 0 0 0 0 0 0 0 0 0 0 0 0 0 0 0
3 1 0 0 2 0 0 0 0 2 0 0 0 0 0 0 0 0 0 0 0 0 0 0 0 0 0 0 0 0 0 0 0 0 0 0 0 0 0 0 0 0 0 0
31 52 11 0 1 8 0 0 0 1 0 2 1 3 3 3 1 0 0 0 0 0 0 0 0 0 0 0 0 0 0 0 0 0 0 0 0 0 0 0 0 0 0 0
0 0 0 0 0 0 0 0 0 24 0 0 1 0 1 0 3 2 0 0 0 0 0 0 0 0 0 0 0 0 0 0 0 0 0 0 0 0 0 0 0 0 0 0
0 0 0 0 3 0 0 0 0 0 0 0 0 0 0 0 0 0 0 0 0 0 0 0 0 0 0 0 0 0 0 0 0 0 0 0 0 0 0 0 0 0 0 0
0 0 0 0 0 0 0 0 0 0 0 0 0 0 0 0 1 0 0 0 0 0 0 0 0 0 0 0 0 0 0 0 0 0 0 0 0 0 0 0 0 0 0 0
0 0 0 0 0 0 0 0 0 0 0 0 0 0 0 0 0 0 0 0 0 0 0 0 0 0 0 0 0 0 0 0 0 0 0 0 0 0 0 0 0 0 0 0
CIN
0 0 0 0 0 0 0 0 0 0 0 0 0 0 0 0 0 0 0 0 0 0 0 0 0 0 0 0 0 0 0 0 0 0 0 0 0 0 0 0 0 0 0 0
0 0 0 0 0 0 0 0 0 0 0 0 0 0 0 0 0 0 0 0 0 0 0 0 0 0 0 0 0 0 0 0 0 0 0 0 0 0 0 0 0 0 0 0
0 0 0 0 0 0 0 0 0 0 0 0 0 0 0 0 0 0 0 0 0 0 0 0 0 0 0 0 0 0 0 0 0 0 0 0 0 0 0 0 0 0 0 0
0 0 0 0 0 0 0 0 0 0 0 0 0 0 0 0 0 0 0 0 0 0 0 0 0 0 0 0 0 0 0 0 0 0 0 0 0 0 0 0 0 0 0 0
0 0 0 0 0 0 0 0 0 0 0 0 0 0 0 0 0 0 0 0 0 0 0 0 0 0 0 0 0 0 0 0 0 0 0 0 0 0 0 0 0 0 0 0
0 0 0 0 0 0 0 0 0 0 0 0 0 0 0 0 0 0 0 0 0 0 0 0 0 0 0 0 0 0 0 0 0 0 0 0 0 0 0 0 0 0 0 0
0 0 0 0 0 0 0 0 0 0 0 0 0 0 0 0 0 0 0 0 0 0 0 0 0 0 0 0 0 0 0 0 0 0 0 0 0 0 0 0 0 0 0 0
0 0 0 0 0 0 0 0 0 0 0 0 0 0 0 0 0 0 0 0 0 0 0 0 0 0 0 0 0 0 0 0 0 0 0 0 0 0 0 0 0 0 0 0
0 0 0 0 0 0 0 0 0 0 0 0 0 0 0 0 0 0 0 0 0 0 0 0 0 0 0 0 0 0 0 0 0 0 0 0 0 0 0 0 0 0 0 0
0 0 0 0 0 0 0 0 0 0 0 0 0 0 0 0 0 0 0 0 0 0 0 0 0 0 0 0 0 0 0 0 0 0 0 0 0 0 0 0 0 0 0 0
0 0 0 0 0 0 0 0 0 0 0 0 0 0 0 0 0 0 0 0 0 0 0 0 0 0 0 0 0 0 0 0 0 0 0 0 0 0 0 0 0 0 0 0
0 0 0 0 0 0 0 0 0 0 0 0 0 0 0 0 0 0 0 0 0 0 0 0 0 0 0 0 0 0 0 0 0 0 0 0 0 0 0 0 0 0 0 0
0 0 0 0 0 0 0 0 0 0 0 0 0 0 0 0 0 0 0 0 0 0 0 0 0 0 0 0 0 0 0 0 0 0 0 0 0 0 0 0 0 0 0 0
0 0 0 0 0 0 0 0 0 0 0 0 0 0 0 0 0 0 0 0 0 0 0 0 0 0 0 0 0 0 0 0 0 0 0 0 0 0 0 0 0 0 0 0
0 0 0 0 0 0 0 0 0 0 0 0 0 0 0 0 0 0 0 0 0 0 0 0 0 0 0 0 0 0 0 0 0 0 0 0 0 0 0 0 0 0 0 0
0 0 0 0 0 0 0 0 0 0 0 0 0 0 0 0 0 0 0 0 0 0 0 0 0 0 0 0 0 0 0 0 0 0 0 0 0 0 0 0 0 0 0 0
0 0 0 0 0 0 0 0 0 0 0 0 0 0 0 0 0 0 0 0 0 0 0 0 0 0 0 0 0 0 0 0 0 0 0 0 0 0 0 0 0 0 0 0
-0 0 0 0 -0 0 0 0 0 0 0 0 0 0 0 0 0 0 0 0 0 0 0 0 0 0 0 0 0 0 0 0 0 0 0 0 0 0 0 0 0 0 0 0
-0 -0 -1 0 0 0 0 0 0 0 0 0 0 0 0 0 0 0 0 0 0 0 0 0 0 0 0 0 0 0 0 0 0 0 0 0 0 0 0 0 0 0 0 0
0 -0 -9 -5 -5 -6 0 0 0 0 0 0 0 0 0 0 0 0 0 0 0 0 0 0 0 0 0 0 0 0 0 0 0 0 0 0 0 0 0 0 0 0 0 0
-11 0 0 -0 -2 0 0 0 0 -18 0 0 0 0 0 0 0 0 0 0 0 0 0 0 0 0 0 0 0 0 0 0 0 0 0 0 0 0 0 0 0 0 0 0
-9 -15 -40 -20 -4 -3 0 0 -8 0 0 0 0 0 0 0 0 0 0 0 0 0 0 0 0 0 0 0 0 0 0 0 0 0 0 0 0 0 0 0 0 0 0 0
0 0 0 0 0 0 0 0 0 -1 0 0 -0 -1 -1 -1 0 -0 0 0 0 0 0 0 0 0 0 0 0 0 0 0 0 0 0 0 0 0 0 0 0 0 0 0
0 0 0 0 -1 0 0 0 -2 0 0 0 0 0 0 0 0 0 0 0 0 0 0 0 0 0 0 0 0 0 0 0 0 0 0 0 0 0 0 0 0 0 0 0
0 0 0 0 0 0 0 0 0 0 0 0 0 0 0 0 -1 -1 0 0 0 0 0 0 0 0 0 0 0 0 0 0 0 0 0 0 0 0 0 0 0 0 0 0
0 0 0 0 0 0 0 0 0 0 0 0 0 0 0 0 0 0 0 0 0 0 0 0 0 0 0 0 0 0 0 0 0 0 0 0 0 0 0 0 0 0 0 0
Wind_Speed
22 25 23 23 23 25 29 30 28 24 34 30 27 26 32 31 25 31 24 21 25 26 26 17 13 11 10 10 10 10 10 9 9 9 10 12 13 12 13 12 12 13 15 17
28 30 24 31 31 34 35 37 30 31 36 29 28 30 35 31 27 24 18 18 20 27 24 14 8 8 8 9 10 10 10 10 10 10 11 13 13 15 14 14 14 13 14 17
32 33 28 32 34 36 36 37 38 36 39 32 36 28 25 24 19 15 22 23 18 19 20 10 8 7 8 9 11 11 10 10 10 9 9 14 13 14 16 15 15 14 15 17
34 32 33 39 40 35 44 36 39 40 38 37 31 54 25 28 26 25 19 14 18 19 13 11 10 9 9 10 10 10 10 10 10 9 10 13 15 18 19 16 15 15 15 17
30 30 28 31 34 29 38 32 34 35 37 44 37 39 39 29 25 21 15 18 20 24 15 14 10 7 7 8 10 10 10 11 10 10 11 13 17 18 17 15 14 16 17 17
33 28 30 31 30 28 29 34 36 35 37 46 34 34 52 31 27 26 20 23 22 22 16 12 8 5 7 8 10 11 12 13 12 11 13 14 16 17 16 16 17 18 18 18
33 32 30 27 30 29 28 31 41 43 41 44 35 39 34 30 25 25 27 27 27 18 12 7 7 6 8 10 12 14 15 16 14 13 14 15 16 16 18 17 18 18 18 18
39 46 25 26 26 29 27 28 36 46 49 67 40 43 42 32 28 29 27 26 22 13 10 9 11 8 10 12 14 16 17 18 17 16 16 15 16 16 18 18 18 18 18 17
39 44 31 27 28 25 30 33 31 40 45 51 53 52 49 35 31 29 26 23 18 14 12 13 13 13 12 15 17 18 18 19 20 19 18 17 17 16 17 18 17 17 17 17
39 46 37 33 32 32 31 29 36 34 46 52 56 60 55 49 42 30 20 17 20 19 18 18 16 16 18 20 18 19 20 21 20 20 19 18 17 17 17 17 18 17 17 17
37 39 44 33 38 38 36 40 38 39 40 50 55 55 34 21 23 24 25 24 21 21 21 24 24 24 22 21 20 20 21 22 22 22 21 20 18 17 18 18 17 18 17 18
36 38 51 51 44 40 40 42 40 47 53 47 51 59 33 35 33 24 22 30 36 39 33 29 26 24 24 22 22 23 23 23 23 23 22 20 19 19 19 18 18 18 19 19
36 41 56 57 56 47 48 44 47 48 50 55 61 61 49 55 52 48 44 46 44 40 34 32 31 28 25 26 26 25 25 25 24 22 21 22 22 20 20 19 19 19 19 20
41 46 47 54 51 50 49 44 43 46 54 58 61 63 64 58 57 61 55 52 45 40 36 36 32 28 27 27 26 26 26 24 23 22 22 22 22 21 20 19 20 19 19 20
43 51 48 51 52 54 52 52 54 55 51 56 60 64 58 60 62 59 55 50 45 48 45 43 40 37 33 31 30 28 26 24 22 22 22 22 20 19 19 19 19 19 20 20
46 60 55 59 53 54 62 59 56 54 53 55 56 61 52 49 51 53 51 50 53 51 53 48 44 41 35 33 31 30 27 24 21 20 20 18 19 18 18 18 19 18 19 20
53 53 59 74 63 64 68 57 59 60 54 52 59 55 46 51 45 44 50 57 58 57 55 51 47 43 39 32 29 27 24 20 18 18 18 18 17 18 18 18 17 18 18 19
62 68 69 79 69 80 66 55 59 66 66 62 60 57 56 52 49 54 52 55 63 62 63 60 49 44 35 29 25 20 18 18 18 18 18 16 16 18 18 18 19 19 19 21
59 64 69 72 76 76 58 55 58 62 71 62 63 62 59 56 54 63 63 55 52 50 49 47 40 34 30 25 20 18 17 18 18 19 18 16 16 17 17 17 17 17 19 19
52 57 66 68 76 82 64 50 50 60 76 50 60 68 58 53 56 59 51 53 48 41 39 38 34 28 26 24 19 18 19 20 19 19 17 16 17 18 17 15 16 16 17 19
51 52 62 66 67 60 46 46 45 66 76 61 55 57 59 58 51 52 49 48 46 44 42 35 31 31 28 24 21 22 23 24 21 18 16 15 15 17 16 16 17 16 17 20
60 57 55 56 67 82 50 48 59 58 50 49 47 47 48 46 45 42 43 43 41 41 37 33 32 32 28 24 24 26 26 24 21 18 17 17 15 15 14 15 16 16 17 18
48 38 46 49 49 47 39 41 46 42 45 45 45 46 47 49 50 49 48 47 44 42 43 40 37 34 30 28 28 30 29 26 24 22 20 17 15 14 15 16 16 17 18 18
53 51 50 53 40 53 61 56 41 42 49 47 47 48 46 50 50 51 54 53 48 43 43 39 37 38 36 31 32 34 30 26 25 26 25 22 19 17 16 16 16 17 18 18
60 66 68 75 68 68 62 58 62 64 62 57 57 58 54 49 51 52 55 52 48 50 49 43 42 43 42 37 38 36 32 29 28 27 26 27 25 21 18 18 18 17 17 16
50 56 65 73 67 69 72 69 65 65 67 63 63 65 62 59 63 62 60 56 54 60 56 53 50 49 46 42 41 40 36 35 33 33 30 28 27 25 21 19 18 16 15 14
Wind_Direction
298 293 288 293 293 299 304 304 303 280 312 306 293 285 302 307 305 309 303 299 310 306 309 291 267 261 261 246 232 231 228 234 240 254 268 281 283 287 293 295 299 303 308 311
294 281 282 297 296 299 300 301 290 300 312 305 299 293 303 305 301 270 285 280 295 316 316 309 276 258 248 233 225 223 226 230 241 258 270 292 286 289 290 294 295 297 302 308
276 288 299 297 296 298 295 297 300 300 308 305 307 280 281 303 282 282 256 270 310 317 314 307 292 262 251 228 219 224 228 234 240 257 269 300 299 299 296 290 290 291 298 305
287 287 283 289 289 294 292 297 299 301 304 302 311 272 295 311 303 306 275 261 319 323 319 305 296 277 244 233 232 234 238 241 248 252 272 277 281 288 290 285 287 288 293 300
291 299 293 289 292 295 297 304 301 301 300 301 300 302 308 311 306 305 303 315 319 320 313 305 298 267 239 239 233 243 250 248 250 250 274 280 284 290 293 288 283 288 293 297
285 297 295 295 300 296 300 301 299 299 300 289 296 297 302 308 313 315 311 317 316 317 317 312 307 282 246 249 247 253 253 254 255 261 276 282 284 284 284 283 283 286 290 294
296 284 294 292 294 298 294 296 296 294 293 278 304 295 282 308 313 310 308 309 315 312 309 302 313 279 248 248 260 260 258 258 261 267 277 277 285 280 276 277 280 282 285 291
296 294 285 291 283 296 289 285 286 291 292 289 299 291 299 306 304 302 298 300 313 314 308 296 309 279 266 267 272 266 260 259 260 264 276 280 284 280 278 276 278 280 282 287
292 289 297 291 294 285 291 283 291 289 292 293 293 295 300 302 300 301 300 305 310 312 307 305 307 294 272 281 276 266 262 264 261 265 278 280 283 280 277 276 278 280 284 288
290 288 287 288 289 286 285 295 288 286 287 287 290 294 297 302 303 306 307 309 309 309 306 306 302 296 286 289 282 273 269 269 267 268 275 279 280 281 279 277 275 278 283 286
287 286 285 286 280 281 283 280 282 286 281 284 289 292 308 312 317 318 315 314 315 317 310 304 298 293 288 286 284 277 273 272 268 269 273 277 277 279 279 276 274 275 280 284
284 287 284 282 284 286 281 278 276 276 280 281 279 277 291 305 306 310 313 309 306 305 302 300 298 291 289 283 284 279 277 274 271 271 270 271 277 278 277 274 274 276 280 286
300 289 285 285 285 284 283 282 278 279 280 276 276 277 286 289 290 294 298 303 304 302 299 299 298 292 287 286 285 282 279 277 276 272 269 273 274 275 275 274 273 275 279 284
290 286 283 282 284 289 289 287 282 277 278 280 278 285 287 288 291 291 295 297 301 301 298 299 296 292 289 287 285 284 281 278 275 272 270 271 272 275 276 275 274 274 278 282
287 283 277 276 279 282 284 282 281 282 282 280 286 286 288 289 291 291 292 295 296 298 299 300 296 294 290 289 288 286 283 278 274 273 272 273 275 276 275 272 272 274 278 283
279 279 279 277 277 277 279 280 280 280 280 279 281 284 286 289 289 288 291 293 295 297 298 299 296 295 292 288 286 285 283 278 270 270 271 272 275 274 273 271 270 272 276 282
277 276 278 278 280 279 275 272 275 280 279 279 281 284 282 289 280 280 288 292 294 296 296 298 298 294 294 291 287 283 280 277 270 267 269 272 270 271 272 270 270 273 275 282
274 277 278 279 281 272 276 275 275 277 279 280 279 281 284 283 277 286 288 289 291 291 292 295 298 293 295 294 289 286 281 275 270 271 271 269 268 271 273 272 274 278 282 285
270 272 275 276 276 279 283 277 276 278 280 280 284 287 285 286 286 282 285 289 295 297 299 302 301 296 292 289 284 280 279 278 275 271 271 269 269 274 274 274 276 279 283 288
273 269 270 273 275 276 280 280 283 285 280 286 287 287 289 290 284 287 290 293 294 297 298 301 305 300 294 288 281 275 276 275 273 275 277 272 272 273 269 271 277 284 285 290
282 275 271 273 273 277 282 285 293 282 286 295 294 289 291 288 289 293 295 294 295 295 296 297 299 298 292 285 279 278 277 273 276 278 280 277 269 268 268 274 284 285 288 293
276 277 275 277 279 282 299 290 283 296 301 301 301 303 305 306 306 308 308 307 308 304 300 297 297 298 294 288 280 280 280 281 279 279 281 281 272 268 264 270 283 287 292 293
282 289 288 283 282 293 301 304 305 303 309 309 304 304 304 302 301 303 302 302 305 307 301 298 298 296 294 289 282 280 283 280 278 277 281 276 270 264 263 270 277 283 291 294
283 287 287 291 290 290 289 297 310 304 304 303 308 308 299 303 301 300 294 297 301 300 299 299 297 294 294 291 285 283 282 279 278 278 279 277 271 266 267 274 273 281 285 286
282 285 282 282 286 287 289 295 295 295 297 302 297 296 301 304 301 295 295 298 299 294 294 294 293 292 291 288 282 282 278 275 275 277 277 273 271 266 268 274 270 279 284 284
289 286 285 285 289 288 289 292 296 296 295 294 294 295 297 297 292 291 292 297 295 288 293 293 289 289 289 286 280 275 272 270 272 275 273 269 264 261 264 268 276 282 281 283